Simultaneous Nadir Overpasses (SNOs) Predictions

Prediction of SNOs between NOAA-20 and METOP-B Satellite Orbit:

Table of predicted SNOs for the next 14.0 days since TLE Epoch: 8/31/2024
Index Date (NOAA-20) Time (NOAA-20) Lat,Lon (NOAA-20) SZA (NOAA-20 ) Date (METOP-B) Time (METOP-B) Lat,Lon (METOP-B) SZA (METOP-B ) Distance(km) Time Diff (sec)
1 09/12/2024 19:51:49 74.16,-129.45 70.60 09/12/2024 19:52:55 74.12,-126.47 70.42 90.49 66
2 09/12/2024 20:42:31 -74.03, 38.19 109.54 09/12/2024 20:43:39 -74.02, 40.60 109.67 73.78 68
3 09/12/2024 21:33:13 73.87,-154.12 70.31 09/12/2024 21:34:23 73.80,-152.58 70.15 48.33 70
4 09/12/2024 22:23:55 -73.74, 13.50 109.82 09/12/2024 22:25:07 -73.70, 14.50 109.93 31.63 72
5 09/12/2024 23:14:36 73.59,-178.82 70.02 09/12/2024 23:15:49 73.53,-178.55 69.94 10.74 73
6 09/13/2024 00:05:19 -73.51, -11.33 110.06 09/13/2024 00:06:31 -73.52, -11.24 110.06 3.36 72
7 09/13/2024 00:56:04 73.50, 156.01 69.95 09/13/2024 00:57:11 73.50, 156.05 69.94 1.63 67
8 09/13/2024 01:46:48 -73.47, -36.61 110.07 09/13/2024 01:47:53 -73.50, -36.63 110.05 3.51 65
9 09/13/2024 02:37:33 73.46, 130.72 69.94 09/13/2024 02:38:33 73.48, 130.66 69.95 2.87 60
10 09/13/2024 03:28:18 -73.48, -62.01 110.03 09/13/2024 03:29:15 -73.48, -62.02 110.05 0.39 57
11 09/13/2024 04:19:03 73.47, 105.32 69.98 09/13/2024 04:19:55 73.46, 105.27 69.95 2.19 52
12 09/13/2024 05:09:47 -73.44, -87.30 110.05 09/13/2024 05:10:37 -73.46, -87.41 110.04 3.63 50
13 09/13/2024 06:00:33 73.48, 79.92 70.02 09/13/2024 06:01:16 73.49, 79.99 70.01 2.42 43
14 09/13/2024 06:51:17 -73.46,-112.70 110.01 09/13/2024 06:51:58 -73.48,-112.69 109.99 3.05 41
15 09/13/2024 07:42:02 73.45, 54.63 70.00 09/13/2024 07:42:38 73.46, 54.60 70.01 1.95 36
16 09/13/2024 08:32:47 -73.47,-138.11 109.97 09/13/2024 08:33:20 -73.46,-138.08 109.98 1.17 33
17 09/13/2024 09:23:32 73.46, 29.23 70.04 09/13/2024 09:24:00 73.44, 29.21 70.02 2.22 28
18 09/13/2024 10:14:16 -73.43,-163.39 109.98 09/13/2024 10:14:42 -73.44,-163.47 109.98 2.60 26
19 09/13/2024 11:05:02 73.47, 3.82 70.08 09/13/2024 11:05:21 73.47, 3.93 70.07 3.36 19
20 09/13/2024 11:55:46 -73.44, 171.21 109.94 09/13/2024 11:56:03 -73.46, 171.25 109.92 2.89 17
21 09/13/2024 12:46:31 73.43, -21.46 70.07 09/13/2024 12:46:43 73.44, -21.46 70.08 1.21 12
22 09/13/2024 13:37:16 -73.45, 145.80 109.90 09/13/2024 13:37:25 -73.44, 145.86 109.92 2.19 9
23 09/13/2024 14:28:01 73.45, -46.86 70.11 09/13/2024 14:28:05 73.42, -46.85 70.08 2.72 4
24 09/13/2024 15:18:45 -73.42, 120.52 109.92 09/13/2024 15:18:47 -73.42, 120.47 109.91 1.57 2
25 09/13/2024 16:09:30 73.41, -72.15 70.09 09/13/2024 16:09:27 73.40, -72.24 70.09 3.09 3
26 09/13/2024 17:00:15 -73.43, 95.11 109.88 09/13/2024 17:00:08 -73.45, 95.19 109.86 3.07 7
27 09/13/2024 17:51:00 73.42, -97.55 70.13 09/13/2024 17:50:48 73.43, -97.52 70.14 1.16 12
28 09/13/2024 18:41:45 -73.44, 69.71 109.84 09/13/2024 18:41:30 -73.42, 69.80 109.85 3.25 15
29 09/13/2024 19:32:29 73.38,-122.84 70.12 09/13/2024 19:32:10 73.40,-122.92 70.14 3.26 19
30 09/13/2024 20:23:14 -73.40, 44.42 109.85 09/13/2024 20:22:52 -73.40, 44.40 109.85 0.65 22
31 09/13/2024 21:13:59 73.39,-148.24 70.16 09/13/2024 21:13:32 73.38,-148.31 70.15 2.56 27
32 09/13/2024 22:04:44 -73.41, 19.02 109.81 09/13/2024 22:04:13 -73.43, 19.13 109.80 3.57 31
33 09/13/2024 22:55:29 73.41,-173.65 70.20 09/13/2024 22:54:53 73.41,-173.59 70.20 1.89 36
34 09/13/2024 23:46:13 -73.38, -6.27 109.83 09/13/2024 23:45:35 -73.40, -6.27 109.79 3.11 38
35 09/14/2024 00:36:58 73.37, 161.07 70.18 09/14/2024 00:36:15 73.38, 161.02 70.21 2.20 43
36 09/14/2024 01:27:43 -73.39, -31.67 109.79 09/14/2024 01:26:57 -73.38, -31.66 109.78 0.86 46
37 09/14/2024 02:18:28 73.38, 135.66 70.22 09/14/2024 02:17:37 73.36, 135.63 70.21 2.46 51



Historial Predications of SNOs between NOAA-20 and METOP-B
